Погода в Большелуге

Россия / Республика Коми     62°07′54″N   52°30′19″E
темп.,
°C
ветер,
м/с
пор.,
м/с
влажн.,
%
обл.,
%
осадки,
мм/ч
давл.,
гПа
погр.,
м
5 марта, пт
пт500:00−13св229794 0.1 99231
03:00−14ссв229796 0.1 99385
06:00−14св1297100 0.3 99451
09:00−13ссв2395100 0.7 996251
12:00−11с2292100 0.3 996387
15:00−11ссз2494100 0.7 998452
18:00−13ссз3696100 0.4 1000312
21:00−15ссз3796100 0.6 1001227
6 марта, сб
сб600:00−20ссз239892 0.1 100241
03:00−20сз229888 0.1 100446
06:00−20сз2498100 0.1 1005125
09:00−17зсз249496 0.1 1006369
12:00−16зсз2489100 0.1 1007639
15:00−16зсз2489100 0.1 1007709
18:00−20з1297100 0.1 100820
21:00−21зюз1299100 0.1 100820
7 марта, вс
вс700:00−23юз1210087 0.0 100720
03:00−24ююз129981 0.1 100820
06:00−25ю1210096 0.0 100719
09:00−21ю239798 0.1 1008221
12:00−15ю1289100 0.0 1007467
15:00−14юв1389100 0.1 1007578
18:00−18вюв2297100 0.0 100720
21:00−20вюв2310097 0.1 100738
8 марта, пн
пн800:00−20в2399100 0.1 100678
03:00−21в259998 0.1 100685
06:00−22всв269898 0.0 1005162
09:00−19всв369699 0.1 1005267
12:00−16всв3693100 0.0 1004403
15:00−15всв4791100 0.1 1004525
18:00−17св3894100 0.0 1005478
21:00−18св3895100 0.1 1005375
9 марта, вт
вт900:00−22ссв399595 0.0 1006287
03:00−24ссв499597 0.0 1007275
06:00−26ссв3895100 0.0 1008285
09:00−25с3794100 0.0 1009309
12:00−22с369388 0.0 1010403
15:00−21с369192 0.0 1011484
18:00−26с379589 0.0 1012171
21:00−29с259651 0.0 101485